SHT18V EGLL-EGPD

Flight info

Callsign SHT18V
Flight time N/A
Altitude 34000
Route ULTIB T420 AKUPA UY250 KEFTE DCT AGPED/N0432F350 DCT MADAD/N0373F240 P18 EPCAN
Aircraft A21N/M-SDE2E3FGHIRWXY/LB1

Departure

Time N/A
Airport London Heathrow Airport (EGLL)

Arrival

Time 2026-05-07 18:02
Airport Aberdeen International Airport (EGPD)
Time Latitude Longitude Altitude Speed Heading
2026-05-07 17:11 52.82028 -1.09570 33976 ft 452 kts 349°
2026-05-07 17:11 52.85132 -1.10538 34072 ft 453 kts 349°
2026-05-07 17:11 52.91312 -1.12437 34045 ft 452 kts 349°
2026-05-07 17:12 52.97496 -1.14325 34029 ft 451 kts 349°
2026-05-07 17:12 53.03672 -1.16216 34024 ft 454 kts 350°
2026-05-07 17:13 53.09900 -1.18125 34034 ft 455 kts 350°
2026-05-07 17:13 53.16124 -1.20038 34032 ft 455 kts 350°
2026-05-07 17:14 53.22349 -1.21962 34033 ft 455 kts 350°
2026-05-07 17:14 53.28581 -1.23893 34028 ft 457 kts 350°
2026-05-07 17:15 53.33788 -1.25509 34027 ft 458 kts 350°
2026-05-07 17:15 53.40096 -1.27473 34033 ft 458 kts 351°
2026-05-07 17:16 53.46374 -1.28590 34029 ft 456 kts 357°
2026-05-07 17:16 53.52756 -1.29333 34029 ft 457 kts 357°
2026-05-07 17:17 53.58986 -1.30866 34015 ft 458 kts 341°
2026-05-07 17:17 53.61870 -1.33162 34032 ft 459 kts 329°
2026-05-07 17:17 53.64596 -1.35960 34036 ft 459 kts 328°
2026-05-07 17:18 53.70040 -1.41589 34028 ft 459 kts 328°
2026-05-07 17:18 53.75510 -1.47205 34018 ft 462 kts 328°
2026-05-07 17:19 53.81007 -1.52824 34022 ft 463 kts 329°
2026-05-07 17:19 53.86527 -1.58409 34033 ft 462 kts 328°
2026-05-07 17:20 53.92026 -1.64070 34017 ft 462 kts 328°
2026-05-07 17:20 53.97515 -1.69739 34035 ft 462 kts 328°
2026-05-07 17:21 54.03296 -1.74462 34019 ft 462 kts 347°
2026-05-07 17:21 54.09658 -1.75854 34034 ft 461 kts 356°
2026-05-07 17:22 54.16056 -1.76893 34017 ft 462 kts 355°
2026-05-07 17:22 54.22421 -1.78050 34017 ft 462 kts 355°
2026-05-07 17:23 54.28826 -1.79224 34027 ft 463 kts 355°
2026-05-07 17:23 54.35232 -1.80409 34016 ft 463 kts 355°
2026-05-07 17:24 54.41642 -1.81599 34016 ft 463 kts 355°
2026-05-07 17:24 54.48057 -1.82795 34013 ft 463 kts 355°
2026-05-07 17:25 54.54466 -1.83996 34035 ft 464 kts 355°
2026-05-07 17:25 54.60890 -1.85191 34031 ft 464 kts 355°
2026-05-07 17:26 54.67304 -1.86392 34010 ft 464 kts 355°
2026-05-07 17:26 54.73721 -1.87600 33996 ft 464 kts 355°
2026-05-07 17:27 54.80149 -1.88817 33998 ft 465 kts 354°
2026-05-07 17:27 54.86578 -1.90027 33983 ft 466 kts 354°
2026-05-07 17:28 54.92981 -1.91244 33992 ft 465 kts 354°
2026-05-07 17:28 54.99464 -1.92485 33990 ft 466 kts 354°
2026-05-07 17:29 55.05871 -1.93710 33986 ft 467 kts 354°
2026-05-07 17:29 55.12347 -1.94666 33975 ft 467 kts
2026-05-07 17:30 55.18771 -1.93250 33984 ft 465 kts 10°
2026-05-07 17:30 55.25164 -1.91476 33981 ft 465 kts 10°
2026-05-07 17:31 55.31564 -1.89742 33971 ft 464 kts
2026-05-07 17:31 55.34727 -1.88888 33665 ft 462 kts
2026-05-07 17:31 55.37916 -1.88028 33372 ft 463 kts
2026-05-07 17:32 55.41087 -1.87167 33111 ft 461 kts
2026-05-07 17:32 55.44250 -1.86307 32840 ft 459 kts
2026-05-07 17:32 55.47398 -1.85454 32567 ft 457 kts
2026-05-07 17:32 55.50526 -1.84613 32268 ft 453 kts
2026-05-07 17:33 55.53635 -1.83774 31827 ft 449 kts
2026-05-07 17:33 55.56710 -1.82940 31286 ft 446 kts
2026-05-07 17:33 55.59781 -1.82099 30509 ft 449 kts
2026-05-07 17:33 55.62880 -1.81250 29634 ft 452 kts
2026-05-07 17:34 55.65992 -1.80396 28926 ft 450 kts
2026-05-07 17:34 55.69055 -1.79556 28445 ft 443 kts
2026-05-07 17:34 55.72067 -1.78729 28062 ft 434 kts
2026-05-07 17:34 55.75024 -1.77916 27686 ft 425 kts
2026-05-07 17:35 55.77916 -1.77119 27329 ft 420 kts
2026-05-07 17:35 55.80759 -1.76338 26915 ft 418 kts
2026-05-07 17:35 55.83623 -1.75547 26445 ft 415 kts
2026-05-07 17:35 55.86463 -1.74760 25970 ft 412 kts
2026-05-07 17:36 55.89325 -1.73978 25500 ft 409 kts
2026-05-07 17:36 55.92107 -1.73790 24992 ft 404 kts 352°
2026-05-07 17:36 55.94870 -1.74574 24350 ft 402 kts 346°
2026-05-07 17:36 55.97620 -1.75620 23608 ft 406 kts 345°
2026-05-07 17:37 56.00387 -1.76697 22943 ft 405 kts 345°
2026-05-07 17:37 56.03118 -1.77735 22478 ft 399 kts 345°
2026-05-07 17:37 56.05817 -1.78743 22109 ft 391 kts 345°
2026-05-07 17:37 56.08442 -1.79713 21788 ft 382 kts 346°
2026-05-07 17:38 56.11044 -1.80681 21443 ft 380 kts 345°
2026-05-07 17:38 56.13621 -1.81645 21024 ft 378 kts 346°
2026-05-07 17:38 56.16183 -1.82601 20596 ft 375 kts 346°
2026-05-07 17:38 56.18739 -1.83549 20168 ft 372 kts 346°
2026-05-07 17:39 56.21264 -1.84493 19712 ft 371 kts 346°
2026-05-07 17:39 56.23782 -1.85438 19256 ft 369 kts 346°
2026-05-07 17:39 56.26283 -1.86372 18830 ft 366 kts 346°
2026-05-07 17:39 56.28777 -1.87304 18384 ft 365 kts 346°
2026-05-07 17:40 56.31268 -1.88240 17820 ft 365 kts 345°
2026-05-07 17:40 56.33736 -1.89174 17320 ft 361 kts 345°
2026-05-07 17:40 56.36190 -1.90098 16873 ft 357 kts 345°
2026-05-07 17:40 56.38579 -1.90993 16474 ft 353 kts 345°
2026-05-07 17:41 56.40973 -1.91891 16073 ft 350 kts 345°
2026-05-07 17:41 56.43348 -1.92787 15729 ft 348 kts 345°
2026-05-07 17:41 56.45741 -1.93693 15385 ft 346 kts 345°
2026-05-07 17:41 56.48061 -1.94572 15058 ft 343 kts 344°
2026-05-07 17:42 56.50391 -1.95453 14696 ft 341 kts 344°
2026-05-07 17:42 56.52699 -1.96331 14308 ft 338 kts 344°
2026-05-07 17:42 56.54996 -1.97203 13942 ft 337 kts 344°
2026-05-07 17:42 56.57282 -1.98074 13569 ft 334 kts 344°
2026-05-07 17:43 56.59546 -1.98935 13159 ft 331 kts 344°
2026-05-07 17:43 56.61801 -1.99800 12771 ft 330 kts 343°
2026-05-07 17:43 56.64014 -2.00860 12426 ft 328 kts 339°
2026-05-07 17:43 56.66115 -2.02381 12077 ft 324 kts 331°
2026-05-07 17:44 56.68145 -2.04133 11744 ft 323 kts 330°
2026-05-07 17:44 56.70168 -2.05921 11408 ft 322 kts 329°
2026-05-07 17:44 56.72188 -2.07714 11080 ft 322 kts 329°
2026-05-07 17:44 56.74197 -2.09497 10761 ft 321 kts 330°
2026-05-07 17:45 56.76201 -2.11286 10426 ft 319 kts 330°
2026-05-07 17:45 56.78171 -2.13052 10104 ft 314 kts 330°
2026-05-07 17:45 56.80121 -2.14804 9777 ft 309 kts 329°
2026-05-07 17:45 56.82029 -2.16514 9423 ft 304 kts 329°
2026-05-07 17:46 56.83920 -2.18194 9076 ft 300 kts 329°
2026-05-07 17:46 56.85789 -2.19867 8721 ft 297 kts 329°
2026-05-07 17:46 56.87629 -2.21514 8385 ft 293 kts 329°
2026-05-07 17:46 56.89442 -2.23132 8042 ft 289 kts 329°
2026-05-07 17:47 56.91245 -2.24731 7708 ft 287 kts 329°
2026-05-07 17:47 56.93039 -2.26317 7363 ft 285 kts 329°
2026-05-07 17:47 56.94820 -2.27890 7040 ft 284 kts 329°
2026-05-07 17:47 56.96590 -2.29461 6714 ft 283 kts 329°
2026-05-07 17:48 56.98364 -2.31033 6391 ft 281 kts 329°
2026-05-07 17:48 57.00122 -2.32586 6070 ft 281 kts 329°
2026-05-07 17:48 57.01883 -2.34133 5713 ft 281 kts 329°
2026-05-07 17:48 57.03682 -2.35562 5359 ft 284 kts 340°
2026-05-07 17:49 57.05639 -2.36222 5050 ft 287 kts 348°
2026-05-07 17:49 57.07619 -2.36672 4722 ft 286 kts 349°
2026-05-07 17:49 57.09588 -2.37093 4402 ft 284 kts 349°
2026-05-07 17:49 57.11542 -2.37501 4066 ft 281 kts 349°
2026-05-07 17:50 57.13486 -2.37916 3730 ft 282 kts 349°
2026-05-07 17:50 57.15431 -2.38345 3391 ft 281 kts 349°
2026-05-07 17:50 57.17363 -2.38783 3075 ft 280 kts 349°
2026-05-07 17:50 57.19266 -2.39233 2961 ft 279 kts 349°
2026-05-07 17:51 57.21172 -2.39683 2953 ft 268 kts 349°
2026-05-07 17:51 57.22994 -2.40100 2960 ft 253 kts 349°
2026-05-07 17:51 57.24662 -2.40470 2955 ft 237 kts 349°
2026-05-07 17:51 57.26221 -2.40799 3005 ft 213 kts 349°
2026-05-07 17:52 57.27668 -2.41086 3023 ft 208 kts 349°
2026-05-07 17:52 57.29098 -2.41367 3012 ft 207 kts 349°
2026-05-07 17:52 57.30529 -2.41652 3005 ft 207 kts 349°
2026-05-07 17:52 57.31963 -2.41930 2993 ft 209 kts 349°
2026-05-07 17:53 57.33410 -2.42205 2985 ft 208 kts 349°
2026-05-07 17:53 57.34857 -2.42481 2990 ft 208 kts 350°
2026-05-07 17:53 57.36297 -2.42760 2996 ft 208 kts 349°
2026-05-07 17:53 57.37730 -2.43066 2987 ft 207 kts 349°
2026-05-07 17:54 57.39171 -2.43384 2984 ft 209 kts 349°
2026-05-07 17:54 57.40631 -2.43570 2957 ft 212 kts
2026-05-07 17:54 57.41983 -2.42524 2958 ft 213 kts 40°
2026-05-07 17:54 57.42743 -2.40329 2956 ft 194 kts 85°
2026-05-07 17:55 57.42551 -2.38223 2940 ft 141 kts 134°
2026-05-07 17:55 57.41899 -2.37032 2972 ft 129 kts 152°
2026-05-07 17:55 57.41165 -2.36090 2994 ft 128 kts 156°
2026-05-07 17:55 57.40406 -2.35257 2998 ft 126 kts 159°
2026-05-07 17:56 57.39629 -2.34497 2997 ft 125 kts 162°
2026-05-07 17:56 57.38846 -2.33794 2995 ft 125 kts 163°
2026-05-07 17:56 57.38058 -2.33117 2992 ft 125 kts 162°
2026-05-07 17:56 57.37266 -2.32465 2992 ft 124 kts 165°
2026-05-07 17:57 57.36466 -2.31851 2996 ft 124 kts 165°
2026-05-07 17:57 57.35935 -2.31453 2994 ft 124 kts 166°
2026-05-07 17:57 57.34856 -2.30645 2995 ft 125 kts 166°
2026-05-07 17:57 57.34051 -2.30045 2975 ft 125 kts 166°
2026-05-07 17:58 57.33250 -2.29451 2867 ft 124 kts 165°
2026-05-07 17:58 57.32449 -2.28854 2707 ft 124 kts 165°
2026-05-07 17:58 57.31645 -2.28256 2544 ft 124 kts 165°
2026-05-07 17:58 57.30847 -2.27663 2370 ft 124 kts 165°
2026-05-07 17:59 57.30051 -2.27072 2201 ft 123 kts 165°
2026-05-07 17:59 57.29260 -2.26485 2028 ft 122 kts 165°
2026-05-07 17:59 57.28475 -2.25903 1860 ft 122 kts 164°
2026-05-07 17:59 57.27697 -2.25325 1693 ft 120 kts 164°
2026-05-07 18:00 57.26935 -2.24761 1510 ft 119 kts 163°
2026-05-07 18:00 57.26166 -2.24191 1369 ft 119 kts 163°
2026-05-07 18:00 57.25395 -2.23620 1188 ft 118 kts 163°
2026-05-07 18:00 57.24637 -2.23059 1022 ft 118 kts 162°
2026-05-07 18:01 57.23884 -2.22502 852 ft 116 kts 162°
2026-05-07 18:01 57.23134 -2.21947 703 ft 114 kts 161°
2026-05-07 18:01 57.22377 -2.21388 576 ft 120 kts 160°
2026-05-07 18:01 57.21593 -2.20803 400 ft 121 kts 159°
2026-05-07 18:02 57.20188 -2.19773 253 ft 71 kts 159°
2026-05-07 18:02 57.19818 -2.19495 256 ft 45 kts 159°
2026-05-07 18:02 57.19579 -2.19325 253 ft 15 kts 158°
2026-05-07 18:03 57.19485 -2.19256 253 ft 15 kts 158°
2026-05-07 18:03 57.19429 -2.19359 252 ft 14 kts 297°
2026-05-07 18:03 57.19508 -2.19486 252 ft 16 kts 320°
2026-05-07 18:03 57.19597 -2.19633 253 ft 18 kts 319°
2026-05-07 18:04 57.19670 -2.19713 253 ft 19 kts 338°
2026-05-07 18:04 57.19801 -2.19809 253 ft 21 kts 338°
2026-05-07 18:04 57.19905 -2.19928 253 ft 17 kts 316°
2026-05-07 18:04 57.19995 -2.20071 252 ft 10 kts 340°
2026-05-07 18:05 57.20067 -2.20121 252 ft 12 kts 338°
2026-05-07 18:05 57.20151 -2.20185 252 ft 14 kts 337°
2026-05-07 18:05 57.20212 -2.20263 252 ft 9 kts 265°
2026-05-07 18:05 57.20195 -2.20352 252 ft 0 kts 248°